La Junta, CO

12:07 PM MST on February 20, 2017 (GMT -0700)
La Junta Municipal

Weather History for KLHX - March, 2012

Change the Weather History Date:

Thursday, March 29, 2012

  Actual Average Record
Temperature  
Mean Temperature 61 °F 48 °F  
Max Temperature 78 °F 63 °F 85 °F (1967)
Min Temperature 43 °F 32 °F 7 °F (1972)
Degree Days  
Heating Degree Days 4 17  
Month to date heating degree days 399 616  
Since 1 July heating degree days 4436 4717  
Cooling Degree Days 0 0  
Month to date cooling degree days 5 0  
Year to date cooling degree days 5 0  
Growing Degree Days 10 (Base 50)    
Moisture  
Dew Point 22 °F    
Average Humidity 34    
Maximum Humidity 57    
Minimum Humidity 11    
Precipitation  
Precipitation 0.00 in 0.03 in 0.58 in (1990)
Month to date precipitation 0.22 0.74  
Year to date precipitation 0.33 1.39  
Snow  
Snow 0.00 in - - ()
Month to date snowfall 0.0  
Snow Depth 0.00 in    
Sea Level Pressure  
Sea Level Pressure 29.73 in    
Wind  
Wind Speed 12 mph (NE)    
Max Wind Speed 23 mph    
Max Gust Speed 26 mph    
Visibility 10 miles    
Events      
T = Trace of Precipitation, MM = Missing Value Source: NWS Daily Summary

Daily Weather History Graph

Daily Weather History Graph

Search for Another Location

Airport or City:

Trip Planner

Search our weather history database for the weather conditions in past years. The results will help you decide how hot, cold, wet, or windy it might be!

Date:

Astronomy

Mar. 29, 2012 Rise Set
Actual Time 6:42 AM MDT 7:14 PM MDT
Civil Twilight 6:16 AM MDT 7:41 PM MDT
Nautical Twilight 5:45 AM MDT 8:12 PM MDT
Astronomical Twilight 5:13 AM MDT 8:44 PM MDT
Moon 10:58 AM MDT (3/29) 1:03 AM MDT (3/29)
Length of Visible Light 13h 24m
Length of Day
12h 31m
Waxing Crescent, 40% of the Moon is Illuminated
Mar 29
Waxing Crescent
Mar 30
First Quarter
Apr 6
Full
Apr 13
Last Quarter
Apr 21
New

Hourly Weather History & Observations

Time (MDT) Temp. Dew Point Humidity Pressure Visibility Wind Dir Wind Speed Gust Speed Precip Events Conditions
12:53 AM 54.0 °F 24.1 °F 31% 29.67 in 10.0 mi North - - N/A   Clear
1:53 AM 54.0 °F 12.9 °F 20% 29.65 in 10.0 mi North - - N/A   Clear
2:53 AM 52.0 °F 12.9 °F 21% 29.65 in 10.0 mi North - - N/A   Clear
3:53 AM 46.0 °F 30.0 °F 54% 29.68 in 10.0 mi North - - N/A   Clear
4:53 AM 45.0 °F 28.9 °F 53% 29.69 in 10.0 mi North - - N/A   Clear
5:53 AM 44.1 °F 24.1 °F 45% 29.71 in 10.0 mi North - - N/A   Clear
6:53 AM 43.0 °F 28.0 °F 56% 29.75 in 10.0 mi North - - N/A   Clear
7:53 AM 50.0 °F 24.1 °F 36% 29.77 in 10.0 mi North - - N/A   Clear
8:53 AM 57.9 °F 18.0 °F 21% 29.76 in 10.0 mi WNW 15.0 mph - N/A   Clear
9:53 AM 66.0 °F 24.1 °F 20% 29.77 in 10.0 mi WNW 15.0 mph - N/A   Clear
10:53 AM 72.0 °F 16.0 °F 12% 29.78 in 10.0 mi North 8.1 mph - N/A   Clear
11:53 AM 75.9 °F 19.9 °F 12% 29.75 in 10.0 mi North 18.4 mph 23.0 mph N/A   Clear
12:53 PM 75.9 °F 19.0 °F 12% 29.75 in 10.0 mi NNE 5.8 mph - N/A   Clear
1:53 PM 77.0 °F 19.9 °F 12% 29.73 in 10.0 mi NE 8.1 mph 20.7 mph N/A   Clear
2:53 PM 73.9 °F 18.0 °F 12% 29.74 in 10.0 mi NE 6.9 mph - N/A   Clear
3:53 PM 72.0 °F 21.9 °F 15% 29.76 in 10.0 mi NNE 15.0 mph - N/A   Clear
4:53 PM 72.0 °F 21.9 °F 15% 29.76 in 10.0 mi NE 17.3 mph - N/A   Clear
5:53 PM 71.1 °F 21.9 °F 16% 29.75 in 10.0 mi ENE 16.1 mph - N/A   Clear
6:53 PM 66.0 °F 24.1 °F 20% 29.76 in 10.0 mi ESE 10.4 mph - N/A   Clear
7:53 PM 60.1 °F 24.1 °F 25% 29.75 in 10.0 mi SE 9.2 mph - N/A   Clear
8:53 PM 55.9 °F 24.1 °F 29% 29.76 in 10.0 mi SE 6.9 mph - N/A   Clear
9:53 PM 52.0 °F 25.0 °F 35% 29.76 in 10.0 mi SE 4.6 mph - N/A   Clear
10:53 PM 54.0 °F 26.1 °F 34% 29.73 in 10.0 mi SE 6.9 mph - N/A   Clear
11:53 PM 50.0 °F 26.1 °F 39% 29.75 in 10.0 mi NNW 5.8 mph - N/A   Clear